Weather in Pokrovo-Prigorodnoe

Russia / Tambov Oblast     52°41′32″N   41°26′09″E
temp.,
°C
wind,
m/s
gust,
m/s
humid.,
%
clouds,
%
prec.,
mm/h
press.,
hPa
HPBL,
m
27 february, sat
sat2700:00+2w61290100 0.0 1006352
03:000w6149395 0.0 1006513
06:00+1w71392100 0.0 1003659
09:00+1w71394100 0.1 1003645
12:00+1w8159490 0.0 1003948
15:00−5nnw8138394 0.5 1005811
18:00−6nnw61087100 0.1 1008749
21:00−8nnw51090100 0.1 1011552
28 february, sun
sun2800:00−9nnw489397 0.0 1012390
03:00−10nnw369392 0.0 1014269
06:00−10nw379462 0.0 1014292
09:00−9nw359173 0.1 1015313
12:00−6nw358797 0.1 1015502
15:00−5nw468798 0.1 1015499
18:00−7nnw259499 0.1 1016201
21:00−8n359599 0.1 1018163
1 march, mon
mon100:00−9nne229595 0.0 102055
03:00−10n229551 0.0 102222
06:00−11n229533 0.0 102327
09:00−9nnw239147 0.0 1026179
12:00−6wnw228496 0.0 1026398
15:00−5w348798 0.0 1026358
18:00−7wsw349551 0.0 102495
21:00−6wsw499460 0.0 1024222
2 march, tue
tue200:00−5wsw51295100 0.0 1021345
03:00−3wsw71394100 0.1 1018493
06:00−2wsw71596100 0.8 1013581
09:000w81497100 2.4 1010764
12:00+1wnw71397100 0.6 1008787
15:00+1nw7138799 1.1 1008949
18:00−2nw61486100 0.1 1009650
21:00−3nw5129268 0.1 1011426
3 march, wed
wed300:00−2nw6129399 0.1 1011572
03:00−4nw51194100 0.3 1011538
06:00−4nw5139499 0.1 1011493
09:00−3nnw7128798 0.1 1013940
12:00−2nnw81283100 0.2 10141212
15:00−2nnw81281100 0.3 10161174
18:00−4nw51288100 0.1 1017565
21:00−5nw4109466 0.1 1019288